TimeEDT,TemperatureF,Dew PointF,Humidity,Sea Level PressureIn,VisibilityMPH,Wind Direction,Wind SpeedMPH,Gust SpeedMPH,PrecipitationIn,Events,Conditions,WindDirDegrees,DateUTC
12:10 AM,30.2,30.2,100,30.20,10.0,Calm,Calm,-,0.00,,Clear,0,2013-10-25 04:10:00
12:30 AM,30.2,30.2,100,30.20,10.0,Calm,Calm,-,0.00,,Clear,0,2013-10-25 04:30:00
12:50 AM,32.0,30.2,93,30.21,10.0,Calm,Calm,-,0.00,,Clear,0,2013-10-25 04:50:00
1:10 AM,30.2,30.2,100,30.21,10.0,Calm,Calm,-,0.00,,Clear,0,2013-10-25 05:10:00
1:30 AM,30.2,30.2,100,30.22,10.0,West,4.6,-,0.00,,Clear,260,2013-10-25 05:30:00
1:50 AM,30.2,30.2,100,30.22,10.0,WSW,4.6,-,0.00,,Clear,240,2013-10-25 05:50:00
2:10 AM,30.2,30.2,100,30.22,10.0,West,4.6,-,0.00,,Clear,260,2013-10-25 06:10:00
2:30 AM,28.4,28.4,100,30.22,10.0,West,4.6,-,0.00,,Clear,270,2013-10-25 06:30:00
2:50 AM,30.2,28.4,93,30.23,10.0,West,4.6,-,0.00,,Clear,270,2013-10-25 06:50:00
3:10 AM,28.4,28.4,100,30.23,10.0,West,3.5,-,0.00,,Clear,260,2013-10-25 07:10:00
3:30 AM,28.4,26.6,93,30.24,10.0,Calm,Calm,-,0.00,,Clear,0,2013-10-25 07:30:00
3:50 AM,28.4,26.6,93,30.25,10.0,Calm,Calm,-,0.00,,Clear,0,2013-10-25 07:50:00
4:10 AM,28.4,28.4,100,30.25,10.0,Calm,Calm,-,0.00,,Clear,0,2013-10-25 08:10:00
4:30 AM,28.4,26.6,93,30.25,10.0,Calm,Calm,-,0.00,,Clear,0,2013-10-25 08:30:00
4:50 AM,28.4,26.6,93,30.26,10.0,Calm,Calm,-,0.00,,Clear,0,2013-10-25 08:50:00
5:10 AM,28.4,26.6,93,30.26,10.0,Calm,Calm,-,0.00,,Clear,0,2013-10-25 09:10:00
5:30 AM,28.4,26.6,93,30.27,10.0,Calm,Calm,-,0.00,,Clear,0,2013-10-25 09:30:00
5:50 AM,26.6,26.6,100,30.28,10.0,Calm,Calm,-,0.00,,Clear,0,2013-10-25 09:50:00
6:10 AM,28.4,26.6,93,30.28,10.0,Calm,Calm,-,0.00,,Clear,0,2013-10-25 10:10:00
6:30 AM,28.4,26.6,93,30.29,10.0,Calm,Calm,-,0.00,,Clear,0,2013-10-25 10:30:00
6:50 AM,26.6,26.6,100,30.30,10.0,Calm,Calm,-,0.00,,Clear,0,2013-10-25 10:50:00
7:10 AM,26.6,26.6,100,30.30,10.0,Calm,Calm,-,0.00,,Clear,0,2013-10-25 11:10:00
7:30 AM,26.6,26.6,100,30.31,10.0,WSW,4.6,-,0.00,,Clear,240,2013-10-25 11:30:00
7:50 AM,28.4,26.6,93,30.31,10.0,WSW,4.6,-,0.00,,Clear,250,2013-10-25 11:50:00
8:10 AM,28.4,26.6,93,30.32,10.0,WSW,4.6,-,0.00,,Clear,240,2013-10-25 12:10:00
8:30 AM,28.4,26.6,93,30.33,10.0,WSW,5.8,-,0.00,,Clear,250,2013-10-25 12:30:00
8:50 AM,30.2,28.4,93,30.33,10.0,WSW,6.9,-,0.00,,Clear,250,2013-10-25 12:50:00
9:10 AM,30.2,28.4,93,30.34,10.0,WSW,8.1,-,0.00,,Clear,250,2013-10-25 13:10:00
9:30 AM,32.0,30.2,93,30.35,10.0,WSW,8.1,-,0.00,,Clear,250,2013-10-25 13:30:00
9:50 AM,32.0,30.2,93,30.35,10.0,West,6.9,-,0.00,,Clear,260,2013-10-25 13:50:00
10:10 AM,33.8,30.2,87,30.36,10.0,WSW,8.1,-,0.00,,Clear,250,2013-10-25 14:10:00
10:30 AM,35.6,32.0,87,30.36,10.0,West,5.8,-,0.00,,Clear,260,2013-10-25 14:30:00
10:50 AM,35.6,32.0,87,30.36,10.0,West,5.8,-,0.00,,Clear,260,2013-10-25 14:50:00
11:10 AM,37.4,32.0,81,30.36,10.0,West,6.9,-,0.00,,Clear,260,2013-10-25 15:10:00
11:30 AM,39.2,32.0,75,30.36,10.0,West,8.1,-,0.00,,Clear,270,2013-10-25 15:30:00
11:50 AM,39.2,32.0,75,30.36,10.0,West,9.2,-,0.00,,Partly Cloudy,270,2013-10-25 15:50:00
12:10 PM,39.2,32.0,75,30.36,10.0,West,9.2,-,0.00,,Partly Cloudy,270,2013-10-25 16:10:00
12:30 PM,42.8,33.8,70,30.36,10.0,West,6.9,-,0.00,,Partly Cloudy,270,2013-10-25 16:30:00
12:50 PM,42.8,32.0,66,30.35,10.0,WSW,11.5,-,0.00,,Scattered Clouds,250,2013-10-25 16:50:00
1:10 PM,42.8,32.0,66,30.34,10.0,West,9.2,-,0.00,,Mostly Cloudy,270,2013-10-25 17:10:00
1:30 PM,44.6,32.0,61,30.33,10.0,WSW,9.2,-,0.00,,Mostly Cloudy,250,2013-10-25 17:30:00
1:50 PM,42.8,30.2,61,30.33,10.0,West,9.2,-,0.00,,Mostly Cloudy,280,2013-10-25 17:50:00
2:10 PM,44.6,32.0,61,30.32,10.0,WNW,11.5,19.6,0.00,,Mostly Cloudy,290,2013-10-25 18:10:00
2:30 PM,44.6,30.2,57,30.32,10.0,WNW,12.7,18.4,0.00,,Mostly Cloudy,290,2013-10-25 18:30:00
2:50 PM,44.6,28.4,53,30.32,10.0,West,5.8,-,0.00,,Mostly Cloudy,270,2013-10-25 18:50:00
3:10 PM,44.6,28.4,53,30.31,10.0,West,8.1,20.7,0.00,,Mostly Cloudy,280,2013-10-25 19:10:00
3:30 PM,44.6,26.6,49,30.30,10.0,WSW,8.1,-,0.00,,Mostly Cloudy,250,2013-10-25 19:30:00
3:50 PM,44.6,26.6,49,30.30,10.0,WSW,11.5,-,0.00,,Partly Cloudy,250,2013-10-25 19:50:00
4:10 PM,46.4,26.6,46,30.30,10.0,WSW,11.5,17.3,0.00,,Partly Cloudy,240,2013-10-25 20:10:00
4:30 PM,44.6,26.6,49,30.29,10.0,West,8.1,-,0.00,,Scattered Clouds,260,2013-10-25 20:30:00
4:50 PM,46.4,24.8,43,30.28,10.0,SW,10.4,-,0.00,,Mostly Cloudy,230,2013-10-25 20:50:00
5:10 PM,42.8,23.0,46,30.29,10.0,WSW,10.4,-,0.00,,Partly Cloudy,240,2013-10-25 21:10:00
5:30 PM,44.6,24.8,46,30.28,10.0,WSW,15.0,-,0.00,,Scattered Clouds,250,2013-10-25 21:30:00
5:50 PM,44.6,24.8,46,30.28,10.0,WSW,9.2,-,0.00,,Scattered Clouds,250,2013-10-25 21:50:00
6:10 PM,42.8,24.8,49,30.28,10.0,WSW,9.2,-,0.00,,Clear,250,2013-10-25 22:10:00
6:30 PM,41.0,24.8,53,30.28,10.0,WSW,6.9,-,0.00,,Clear,240,2013-10-25 22:30:00
6:50 PM,39.2,24.8,56,30.27,10.0,SW,5.8,-,0.00,,Clear,230,2013-10-25 22:50:00
7:10 PM,37.4,24.8,60,30.27,10.0,SW,3.5,-,0.00,,Clear,220,2013-10-25 23:10:00
7:30 PM,35.6,26.6,70,30.27,10.0,South,5.8,-,0.00,,Clear,190,2013-10-25 23:30:00
7:50 PM,33.8,26.6,75,30.27,10.0,SSW,4.6,-,0.00,,Clear,200,2013-10-25 23:50:00
8:10 PM,35.6,24.8,65,30.26,10.0,SSW,5.8,-,0.00,,Clear,200,2013-10-26 00:10:00
8:30 PM,33.8,26.6,75,30.26,10.0,SSW,5.8,-,0.00,,Clear,200,2013-10-26 00:30:00
8:50 PM,33.8,24.8,70,30.25,10.0,South,6.9,-,0.00,,Clear,190,2013-10-26 00:50:00
9:10 PM,33.8,26.6,75,30.25,10.0,South,6.9,-,0.00,,Clear,190,2013-10-26 01:10:00
9:30 PM,33.8,26.6,75,30.24,10.0,South,6.9,-,0.00,,Clear,190,2013-10-26 01:30:00
9:50 PM,33.8,26.6,75,30.23,10.0,South,6.9,-,0.00,,Clear,190,2013-10-26 01:50:00
10:10 PM,33.8,26.6,75,30.23,10.0,SSW,8.1,-,0.00,,Clear,200,2013-10-26 02:10:00
10:30 PM,33.8,26.6,75,30.23,10.0,South,6.9,-,0.00,,Clear,190,2013-10-26 02:30:00
10:50 PM,33.8,26.6,75,30.23,10.0,South,6.9,-,0.00,,Clear,190,2013-10-26 02:50:00
11:10 PM,33.8,26.6,75,30.22,10.0,South,6.9,-,0.00,,Clear,190,2013-10-26 03:10:00
11:30 PM,33.8,26.6,75,30.22,10.0,South,6.9,-,0.00,,Clear,190,2013-10-26 03:30:00
11:50 PM,33.8,26.6,75,30.21,10.0,South,5.8,-,0.00,,Clear,180,2013-10-26 03:50:00